Starlink 31683

operational
NORAD ID: 59573 Int'l Des: 2024-076 Owner: SPXS Country: US Constellation: starlink
LEOCIRCULAR

Starlink 31683について

説明を読み込み中...

リアルタイム位置

3D地球を読み込み中...

次回通過

高度履歴

Altitude vs Time

uPlot chart will show altitude changes over time

軌道要素

1 59573U 24076K 25259.75875335 -.00001582 00000-0 -47975-4 0 9998
2 59573 43.0052 271.1418 0001057 273.2284 86.8447 15.27572477 79909
Epoch: Sep 16, 2025 • Age: 30 hours

現在のステータス

高度 483.5 km
速度 7.63 km/s
衛星直下点 25.20°N, 47.02°E
打ち上げ日 Apr 23, 2024
運用期間 1.4 years
タイプ internet

技術仕様

分類 Payload
質量 730.00 kg
乾燥質量 700.00 kg
総質量 730.00 kg
長さ 0.30 m
直径 4.10 m
スパン 29.00 m
形状 Box + pan
製造者 SPXS
バスタイプ Starlink V2M
フェーズステータス In Orbit
所有者/国 SPXS/US

大規模コンステレーション

Loading constellations...